Location: Lourdes
(43.1000°N, 0.0500°W)
Time: 17:57:46
(UTC+00:00)

Cosmos 1680 Rocket - Visible Passes

Search period start: 14 April 2021 00:00
Search period end: 24 April 2021 00:00
Orbit: 760 x 781 km, 74.1° (Epoch: 13 April)

Date Brightness Start Highest point End Pass type
(mag) Time Alt. Az. Time Alt. Az. Time Alt. Az.
14 Apr 4.1 03:11:40 10° NNW 03:16:54 58° ENE 03:22:07 10° SE visible
15 Apr 5.0 02:35:34 10° N 02:40:26 36° ENE 02:45:18 10° SE visible
15 Apr 4.3 04:17:51 10° NW 04:22:25 30° W 04:26:59 10° SSW visible
16 Apr 5.7 01:59:40 10° N 02:03:52 23° ENE 02:08:04 10° ESE visible
16 Apr 3.7 03:41:09 10° NNW 03:46:16 50° WSW 03:51:22 10° S visible
17 Apr 6.2 01:24:07 10° NNE 01:27:11 15° NE 01:30:15 10° E visible
17 Apr 3.4 03:04:41 10° NNW 03:10:01 84° WSW 03:15:19 10° SSE visible
18 Apr 4.0 02:28:24 10° NNW 02:33:40 60° ENE 02:37:45 17° SE visible
18 Apr 4.9 04:11:48 10° NW 04:15:14 18° W 04:17:55 12° SW visible
19 Apr 4.8 01:52:17 10° N 01:57:13 37° ENE 02:00:21 20° ESE visible
19 Apr 4.3 03:34:39 10° NW 03:39:10 29° W 03:40:33 26° SW visible
20 Apr 5.5 01:16:23 10° N 01:20:39 24° ENE 01:23:26 16° E visible
20 Apr 3.7 02:57:55 10° NNW 03:03:02 49° WSW 03:03:41 46° SW visible
21 Apr 6.1 00:40:49 10° NNE 00:43:58 16° NE 00:46:49 11° E visible
21 Apr 3.3 02:21:27 10° NNW 02:26:47 81° WSW 02:27:04 77° SSW visible
22 Apr 3.8 01:45:09 10° NNW 01:50:26 62° ENE 01:50:39 61° E visible
22 Apr 5.2 03:28:37 10° NW 03:30:55 16° W 03:30:55 16° W visible
23 Apr 4.6 01:09:02 10° N 01:13:59 38° ENE 01:14:22 38° ENE visible
23 Apr 4.7 02:51:26 10° NW 02:54:38 25° WNW 02:54:38 25° WNW visible
